Weather History for Port Angeles, WA

Change the Weather History Date:

Thursday, October 10, 2013

  Actual Average Record
Temperature  
Mean Temperature 50 °F -  
Max Temperature 53 °F 59 °F 69 °F (1991)
Min Temperature 44 °F 44 °F 34 °F (1987)
Degree Days  
Heating Degree Days 16    
Moisture  
Dew Point 47 °F    
Average Humidity 88    
Maximum Humidity 97    
Minimum Humidity 77    
Precipitation  
Precipitation 0.05 in - - ()
Sea Level Pressure  
Sea Level Pressure 30.00 in    
Wind  
Wind Speed 4 mph (SE)    
Max Wind Speed 8 mph    
Max Gust Speed -    
Visibility 7 miles    
Events Rain    
Averages and records for this station are not official NWS values.
T = Trace of Precipitation, MM = Missing Value Source: NWS Daily Summary

Daily Weather History Graph

Daily Weather History Graph

Search for Another Location

Airport:

Trip Planner

Search our weather history database for the weather conditions in past years. The results will help you decide how hot, cold, wet, or windy it might be!

Date:

Astronomy

Oct. 10, 2013 Rise Set
Actual Time 7:26 AM PDT 6:34 PM PDT
Civil Twilight 6:55 AM PDT 7:05 PM PDT
Nautical Twilight 6:19 AM PDT 7:41 PM PDT
Astronomical Twilight 5:43 AM PDT 8:17 PM PDT
Moon 1:40 PM PDT (10/10) 11:02 PM PDT (10/10)
Length of Visible Light 12h 09m
Length of Day
11h 07m
Waxing Crescent, 37% of the Moon is Illuminated
Oct 10
Waxing Crescent
Oct 11
First Quarter
Oct 18
Full
Oct 26
Last Quarter
Nov 3
New

Hourly Weather History & Observations

Time (PDT) Temp. Windchill Dew Point Humidity Pressure Visibility Wind Dir Wind Speed Gust Speed Precip Events Conditions
12:53 AM 50.0 °F - 46.0 °F 86% 29.97 in 10.0 mi SW 3.5 mph - N/A   Overcast
1:53 AM 50.0 °F - 46.0 °F 86% 29.95 in 10.0 mi WSW 3.5 mph - N/A   Overcast
2:53 AM 50.0 °F - 44.1 °F 80% 29.95 in 10.0 mi WSW 5.8 mph - N/A   Overcast
3:53 AM 50.0 °F - 45.0 °F 83% 29.95 in 10.0 mi WSW 4.6 mph - N/A   Overcast
4:53 AM 50.0 °F - 45.0 °F 83% 29.94 in 10.0 mi WSW 4.6 mph - 0.00 in Rain Light Rain
5:53 AM 50.0 °F - 43.0 °F 77% 29.94 in 10.0 mi West 5.8 mph - 0.00 in   Overcast
6:53 AM 50.0 °F - 44.1 °F 80% 29.95 in 10.0 mi SW 4.6 mph - N/A   Overcast
7:53 AM 48.9 °F - 45.0 °F 86% 29.95 in 10.0 mi Calm Calm - 0.00 in   Overcast
8:23 AM 50.0 °F - 45.0 °F 83% 29.96 in 10.0 mi West 4.6 mph - N/A   Overcast
8:53 AM 50.0 °F - 46.0 °F 86% 29.96 in 10.0 mi Calm Calm - N/A   Overcast
9:26 AM 50.0 °F - 46.9 °F 89% 29.97 in 2.5 mi Calm Calm - 0.01 in Rain Light Rain
9:53 AM 50.0 °F - 48.0 °F 93% 29.97 in 3.0 mi Calm Calm - 0.02 in Rain Light Rain
10:07 AM 50.0 °F - 46.9 °F 89% 29.98 in 4.0 mi North 3.5 mph - 0.00 in Rain Light Rain
10:22 AM 50.0 °F - 48.0 °F 93% 29.98 in 2.0 mi Calm Calm - 0.01 in Rain Light Rain
10:33 AM 50.0 °F - 48.0 °F 93% 29.98 in 4.0 mi Calm Calm - 0.01 in   Overcast
10:48 AM 51.8 °F - 48.2 °F 88% 29.98 in 6.0 mi ENE 3.5 mph - 0.01 in   Overcast
10:53 AM 50.0 °F - 48.9 °F 96% 29.99 in 5.0 mi ENE 3.5 mph - 0.01 in   Overcast
11:53 AM 50.0 °F - 48.0 °F 93% 30.00 in 4.0 mi ENE 3.5 mph - N/A   Overcast
12:17 PM 50.0 °F - 48.0 °F 93% 30.01 in 2.5 mi ENE 3.5 mph - N/A   Overcast
12:51 PM 50.0 °F - 48.2 °F 94% 30.01 in 1.8 mi ENE 3.5 mph - 0.01 in Rain Light Rain
12:53 PM 50.0 °F - 48.0 °F 93% 30.01 in 1.8 mi East 5.8 mph - 0.01 in Rain Light Rain
1:01 PM 50.0 °F - 48.0 °F 93% 30.01 in 2.5 mi East 8.1 mph - 0.01 in   Overcast
1:07 PM 50.0 °F - 46.9 °F 89% 30.01 in 3.0 mi East 6.9 mph - 0.01 in   Overcast
1:31 PM 51.1 °F - 48.0 °F 89% 30.01 in 2.5 mi ESE 5.8 mph - 0.01 in   Overcast
1:40 PM 51.1 °F - 48.0 °F 89% 30.01 in 4.0 mi SE 8.1 mph - 0.01 in   Overcast
1:53 PM 51.1 °F - 48.0 °F 89% 30.01 in 10.0 mi SE 5.8 mph - 0.01 in   Overcast
2:53 PM 52.0 °F - 48.0 °F 86% 30.02 in 10.0 mi SSE 8.1 mph - N/A   Overcast
3:50 PM 53.6 °F - 48.2 °F 82% 30.02 in 10.0 mi SE 5.8 mph - N/A   Overcast
3:53 PM 53.1 °F - 48.0 °F 83% 30.02 in 10.0 mi SSE 4.6 mph - N/A   Overcast
4:53 PM 52.0 °F - 46.9 °F 83% 30.03 in 10.0 mi East 4.6 mph - N/A   Overcast
5:53 PM 51.1 °F - 46.9 °F 86% 30.02 in 10.0 mi SSE 4.6 mph - N/A   Overcast
6:53 PM 50.0 °F - 46.0 °F 86% 30.02 in 10.0 mi SE 3.5 mph - N/A   Mostly Cloudy
7:53 PM 48.0 °F - 46.0 °F 93% 30.03 in 10.0 mi SSW 3.5 mph - N/A   Overcast
8:53 PM 46.9 °F - 46.0 °F 97% 30.04 in 10.0 mi Calm Calm - N/A   Overcast
9:53 PM 46.9 °F - 45.0 °F 93% 30.06 in 10.0 mi Calm Calm - N/A   Overcast
10:53 PM 46.0 °F - 44.1 °F 93% 30.08 in 10.0 mi Calm Calm - N/A   Overcast
11:53 PM 44.1 °F 42.5 °F 43.0 °F 96% 30.07 in 10.0 mi South 3.5 mph - N/A   Partly Cloudy